Total_Precipitation_Accumulation
0.59 0.91 1.37 1.95 2.43 2.66 2.67 2.74 2.71 2.74 2.80 2.80 2.88 3.07 3.24 3.30 3.30 3.40 3.43 3.28 3.20 3.23 3.35 3.33 3.24 2.99 2.80 2.70 2.64 2.54 2.34 2.09 1.92 1.90 1.84 1.68 1.48 1.40 1.33 1.26 1.23 1.16 1.11
0.62 0.96 1.34 1.73 2.10 2.40 2.58 2.69 2.63 2.82 3.06 3.39 3.80 4.13 4.32 4.23 4.13 4.08 4.00 3.87 3.77 3.68 3.61 3.58 3.39 3.15 2.96 2.75 2.57 2.48 2.38 2.21 2.05 1.97 2.01 1.79 1.59 1.33 1.19 1.19 1.13 1.05 1.01
0.69 0.94 1.13 1.39 1.70 2.05 2.35 2.55 2.74 3.14 3.59 4.09 4.77 5.23 5.13 4.80 4.65 4.40 4.30 4.09 3.82 3.74 3.75 3.50 3.30 3.10 2.90 2.73 2.53 2.45 2.40 2.22 2.08 1.98 2.01 1.86 1.66 1.44 1.27 1.09 1.00 0.98 0.97
0.63 0.79 1.01 1.22 1.44 1.83 2.22 2.56 2.93 3.43 4.03 4.51 4.97 5.28 5.32 5.12 4.90 4.47 4.11 3.72 3.40 3.22 3.13 3.03 2.85 2.73 2.58 2.44 2.29 2.26 2.20 2.07 1.91 1.81 1.63 1.52 1.42 1.39 1.27 1.09 0.97 0.96 0.99
0.53 0.60 0.75 0.97 1.26 1.68 2.12 2.49 2.85 3.40 3.95 4.46 4.83 5.04 5.17 5.07 4.76 4.16 3.58 3.21 2.92 2.71 2.50 2.32 2.22 2.19 2.10 1.90 1.74 1.69 1.67 1.60 1.53 1.50 1.40 1.31 1.22 1.18 1.15 1.10 1.01 0.95 0.91
0.54 0.57 0.65 0.80 1.08 1.44 1.82 2.20 2.54 3.19 3.83 4.35 4.73 4.97 5.01 4.75 4.22 3.63 3.12 2.82 2.59 2.37 2.17 2.03 1.85 1.74 1.61 1.44 1.26 1.20 1.23 1.28 1.29 1.26 1.21 1.09 1.03 0.99 1.00 0.99 0.93 0.91 0.90
0.53 0.52 0.61 0.70 0.96 1.30 1.62 1.98 2.35 2.79 3.26 3.65 3.88 4.03 4.06 3.87 3.59 3.23 2.82 2.49 2.29 2.08 1.83 1.59 1.43 1.33 1.26 1.17 1.06 0.96 0.95 1.03 1.07 1.04 1.00 0.98 0.90 0.86 0.92 0.98 0.96 0.89 0.84
0.53 0.56 0.63 0.72 0.85 1.08 1.38 1.75 2.05 2.34 2.56 2.72 2.90 2.90 2.85 2.78 2.65 2.35 2.02 1.76 1.54 1.41 1.24 1.07 1.00 0.94 0.94 0.93 0.90 0.83 0.78 0.82 0.92 0.97 0.99 1.00 0.97 0.97 0.98 1.03 1.07 1.11 1.00
0.57 0.63 0.71 0.75 0.85 0.98 1.18 1.38 1.52 1.71 1.78 1.73 1.74 1.78 1.80 1.77 1.65 1.49 1.27 1.04 0.86 0.77 0.71 0.65 0.64 0.58 0.61 0.67 0.70 0.72 0.73 0.74 0.76 0.80 0.83 0.89 0.94 0.96 0.94 0.96 1.02 1.14 1.16
0.61 0.65 0.72 0.78 0.84 0.89 1.06 1.17 1.18 1.17 1.20 1.22 1.21 1.18 1.19 1.18 1.15 1.09 0.98 0.85 0.72 0.61 0.52 0.49 0.49 0.45 0.43 0.46 0.52 0.56 0.61 0.67 0.68 0.66 0.67 0.70 0.76 0.89 0.98 1.03 1.05 1.10 1.17
0.69 0.73 0.72 0.69 0.70 0.72 0.76 0.83 0.87 0.93 0.94 0.93 0.94 0.92 0.85 0.79 0.77 0.79 0.77 0.70 0.61 0.54 0.47 0.42 0.42 0.40 0.37 0.37 0.39 0.42 0.45 0.53 0.57 0.54 0.54 0.59 0.63 0.71 0.78 0.88 0.97 1.09 1.19
0.79 0.74 0.69 0.65 0.64 0.68 0.71 0.71 0.73 0.74 0.77 0.76 0.74 0.73 0.65 0.59 0.59 0.58 0.57 0.53 0.50 0.48 0.47 0.45 0.43 0.39 0.35 0.33 0.33 0.35 0.35 0.38 0.41 0.43 0.45 0.44 0.46 0.54 0.60 0.70 0.78 0.86 0.96
1.00 0.88 0.78 0.69 0.65 0.67 0.68 0.63 0.60 0.56 0.51 0.49 0.49 0.54 0.55 0.52 0.54 0.51 0.49 0.51 0.48 0.45 0.42 0.42 0.41 0.38 0.35 0.36 0.35 0.32 0.32 0.31 0.33 0.36 0.38 0.40 0.44 0.50 0.56 0.63 0.67 0.75 0.82
1.05 0.90 0.84 0.75 0.70 0.65 0.61 0.56 0.52 0.48 0.44 0.40 0.38 0.42 0.45 0.46 0.47 0.48 0.46 0.43 0.40 0.39 0.34 0.31 0.32 0.33 0.32 0.29 0.28 0.27 0.27 0.27 0.28 0.29 0.30 0.33 0.40 0.47 0.53 0.57 0.63 0.73 0.83
1.11 1.02 0.91 0.81 0.73 0.69 0.62 0.55 0.50 0.43 0.40 0.41 0.41 0.42 0.44 0.43 0.44 0.45 0.44 0.38 0.34 0.31 0.27 0.24 0.25 0.27 0.26 0.23 0.21 0.22 0.21 0.23 0.26 0.28 0.28 0.27 0.33 0.42 0.46 0.51 0.63 0.77 0.88
1.13 1.06 0.95 0.85 0.77 0.75 0.72 0.66 0.59 0.51 0.47 0.49 0.50 0.46 0.45 0.45 0.47 0.44 0.40 0.35 0.33 0.30 0.26 0.25 0.24 0.21 0.19 0.21 0.20 0.19 0.22 0.26 0.31 0.35 0.33 0.26 0.25 0.29 0.35 0.43 0.53 0.65 0.79
1.24 1.19 1.08 0.96 0.88 0.82 0.76 0.72 0.66 0.59 0.54 0.53 0.50 0.46 0.42 0.41 0.40 0.36 0.35 0.32 0.31 0.29 0.27 0.27 0.26 0.24 0.17 0.14 0.14 0.16 0.20 0.28 0.36 0.38 0.36 0.30 0.26 0.31 0.36 0.39 0.42 0.51 0.64
1.34 1.23 1.14 1.07 1.01 0.92 0.83 0.75 0.65 0.57 0.52 0.49 0.45 0.39 0.37 0.38 0.35 0.33 0.34 0.32 0.33 0.34 0.31 0.27 0.27 0.27 0.16 0.12 0.13 0.15 0.22 0.31 0.33 0.31 0.32 0.38 0.42 0.36 0.34 0.36 0.49 0.64 0.73
1.33 1.23 1.12 1.05 0.99 0.92 0.80 0.68 0.60 0.50 0.44 0.43 0.39 0.34 0.30 0.30 0.30 0.30 0.32 0.33 0.36 0.40 0.33 0.27 0.29 0.28 0.20 0.14 0.15 0.16 0.23 0.31 0.31 0.28 0.27 0.31 0.39 0.36 0.40 0.52 0.71 0.91 1.05
1.15 1.12 1.08 0.99 0.89 0.78 0.65 0.58 0.55 0.48 0.39 0.35 0.31 0.29 0.28 0.29 0.30 0.32 0.34 0.31 0.34 0.40 0.31 0.23 0.25 0.24 0.20 0.14 0.16 0.19 0.23 0.31 0.33 0.35 0.33 0.36 0.38 0.39 0.51 0.63 0.87 1.09 1.20
1.05 1.00 0.93 0.86 0.76 0.64 0.54 0.50 0.47 0.42 0.29 0.22 0.22 0.24 0.26 0.27 0.25 0.31 0.34 0.33 0.34 0.38 0.34 0.28 0.26 0.22 0.16 0.14 0.18 0.18 0.20 0.28 0.36 0.38 0.43 0.45 0.46 0.44 0.56 0.74 0.91 1.12 1.16
0.96 0.90 0.81 0.69 0.57 0.46 0.43 0.42 0.36 0.27 0.18 0.18 0.20 0.22 0.22 0.18 0.18 0.28 0.32 0.33 0.38 0.36 0.35 0.33 0.29 0.23 0.18 0.13 0.12 0.11 0.13 0.22 0.36 0.46 0.50 0.50 0.49 0.51 0.67 0.82 1.02 1.23 1.32
0.76 0.67 0.57 0.50 0.41 0.35 0.36 0.34 0.26 0.18 0.15 0.20 0.24 0.23 0.20 0.20 0.18 0.23 0.26 0.28 0.35 0.35 0.32 0.31 0.29 0.24 0.21 0.14 0.08 0.08 0.09 0.15 0.27 0.42 0.55 0.57 0.52 0.68 0.96 1.13 1.24 1.41 1.46
0.57 0.49 0.43 0.42 0.37 0.29 0.26 0.23 0.16 0.14 0.18 0.25 0.25 0.23 0.24 0.25 0.21 0.20 0.18 0.19 0.23 0.25 0.29 0.29 0.28 0.27 0.24 0.16 0.11 0.12 0.14 0.17 0.22 0.34 0.53 0.66 0.71 0.87 1.15 1.36 1.46 1.51 1.40
0.39 0.35 0.36 0.35 0.30 0.24 0.20 0.16 0.14 0.15 0.22 0.23 0.20 0.19 0.20 0.21 0.21 0.17 0.12 0.10 0.11 0.09 0.16 0.22 0.24 0.25 0.20 0.13 0.13 0.15 0.17 0.20 0.25 0.32 0.49 0.68 0.78 0.97 1.19 1.32 1.33 1.27 1.17
0.24 0.23 0.24 0.23 0.20 0.18 0.15 0.13 0.11 0.12 0.19 0.21 0.17 0.16 0.14 0.13 0.12 0.14 0.13 0.07 0.05 0.06 0.07 0.11 0.13 0.14 0.13 0.11 0.11 0.12 0.17 0.23 0.29 0.37 0.57 0.74 0.83 0.97 1.09 1.16 1.13 1.05 0.96